Location: New York
(40.7140°N, 74.0060°W)
Time: 10:42:47
(UTC-04:00)

ISS - Visible Passes

Search period start: 26 September 2017 00:00
Search period end: 06 October 2017 00:00
Orbit: 401 x 407 km, 51.6° (Epoch: 26 September)

Date Brightness Start Highest point End Pass type
(mag) Time Alt. Az. Time Alt. Az. Time Alt. Az.
26 Sep -2.8 20:37:23 10° WSW 20:40:31 43° NNW 20:40:35 43° NNW visible
27 Sep -3.8 19:44:50 10° WSW 19:48:06 79° NW 19:50:41 15° NE visible
27 Sep -0.5 21:22:39 10° WNW 21:23:22 13° NW 21:23:22 13° NW visible
28 Sep -1.8 20:29:40 10° W 20:32:25 24° NNW 20:33:19 21° N visible
29 Sep -2.4 19:36:49 10° W 19:39:52 36° NNW 19:42:57 10° NE visible
29 Sep -0.5 21:15:17 10° NW 21:15:48 12° NW 21:15:48 12° NW visible
30 Sep -1.3 20:22:11 10° WNW 20:24:23 16° NNW 20:25:32 14° N visible
01 Oct -1.6 19:29:08 10° WNW 19:31:44 21° NNW 19:34:21 10° NNE visible
01 Oct -0.5 21:07:40 10° NNW 21:07:50 10° NNW 21:07:50 10° NNW visible
02 Oct -1.2 20:14:43 10° NW 20:16:23 13° N 20:17:26 12° NNE visible
03 Oct -1.3 19:21:36 10° NW 19:23:38 15° NNW 19:25:41 10° NNE visible
03 Oct -0.6 20:59:30 10° NNW 20:59:37 10° NNW 20:59:37 10° NNW visible
04 Oct -1.2 20:06:55 10° NNW 20:08:23 12° N 20:09:09 12° NNE visible
05 Oct -1.2 19:14:02 10° NNW 19:15:35 13° N 19:17:08 10° NNE visible
05 Oct -0.7 20:50:54 10° NNW 20:51:17 12° NNW 20:51:17 12° NNW visible
